[[{"header":{"parameterUnit":"m.s-1","parameterCategory":1,"la1":30.2991,"la2":30.254,"lo1":-89.0895,"lo2":-89.0444,"dy":0.0017,"dx":0.0017,"nx":28,"ny":28,"refTime":"2025-07-11T03:00:00:Z","depth":0,"parameterNumber":2,"parameterNumberName":"U-component_of_WINDS"},"data":[0,0,0,0,0,0,0,0,0,0,0,0,0,0,0,0,0,0,0,0,0,0,0,0,0,0,0,0,0,0,0,0,0,0,0,0,0,0,0,0,0,0,0,0,0,0,0,0,0,0,0,0,0,0,0,0,0,0,3.1894,3.1895,0,3.2021,3.2022,3.2023,3.1988,3.1986,3.1983,3.1981,3.2111,3.2117,3.2123,0,0,0,0,0,0,0,0,0,0,0,0,0,3.162,3.1625,3.1893,3.1895,3.1897,3.202,3.2022,3.2024,3.1989,3.1986,3.1982,3.1979,3.2109,3.2116,3.2123,0,0,0,0,0,0,0,0,0,0,0,0,0,3.1742,3.1627,3.1893,3.1894,3.1895,3.202,3.2022,3.2024,3.1989,3.1985,3.1982,3.1978,3.2107,3.2116,3.2124,3.2256,0,0,3.2151,3.2155,0,0,0,0,0,0,0,0,3.1735,3.1752,3.1892,3.1894,3.1896,3.1985,3.1973,3.2102,3.199,3.1954,3.1981,3.1976,3.2072,3.2084,3.2116,3.2262,3.2268,3.2152,3.2157,3.2161,3.2164,0,0,0,0,0,0,0,3.1727,3.1746,3.1944,3.1894,3.1897,3.1888,3.1901,3.1998,3.2033,3.1957,3.1954,3.197,3.2073,3.2108,3.2119,3.227,3.2152,3.216,3.2165,3.2169,3.2529,3.2533,0,0,0,0,0,0,3.1717,3.1739,3.194,3.1947,3.1804,3.1896,3.191,3.196,3.2032,3.2039,3.1973,3.1968,3.2095,3.2109,3.2123,3.2281,3.2161,3.2169,3.2174,3.2524,3.253,3.2534,0,0,0,0,0,0,3.1711,3.1735,3.1935,3.1843,3.1868,3.1905,3.1961,3.1965,3.2,3.2044,3.205,3.2002,3.2092,3.2111,3.2223,3.2285,3.2173,3.2181,3.2519,3.2526,3.2532,3.2598,0,0,0,0,0,0,3.1703,3.1733,3.1784,3.1844,3.1873,3.2032,3.1964,3.197,3.2015,3.2009,3.2074,3.2081,3.209,3.221,3.2232,3.2295,3.2188,3.2514,3.2522,3.253,3.2591,3.2606,3.2619,0,0,0,0,0,3.1694,3.1798,3.1787,3.1811,3.1937,3.2036,3.2052,3.2061,3.202,3.2071,3.2099,3.2078,3.2275,3.2222,3.2246,3.2313,3.251,3.252,3.2529,3.2584,3.2603,3.2619,0,0,0,0,0,0,3.1744,3.1806,3.1794,3.1921,3.1973,3.203,3.2094,3.2081,3.2147,3.2139,3.2147,3.2162,3.2277,3.2306,3.2246,3.2444,3.2386,3.2401,3.242,3.2438,3.2452,3.2442,3.2196,0,0,0,0,0,3.177,3.1845,3.1895,3.2002,3.2029,3.2058,3.2101,3.2104,3.2158,3.218,3.2217,3.2271,3.2345,3.2393,3.2464,3.2595,3.2608,3.2653,3.2667,3.2679,3.2691,3.2761,3.2782,3.2566,3.2566,3.2566,0,0,3.1824,3.1867,3.1914,3.2014,3.2055,3.2132,3.2077,3.2161,3.2219,3.2193,3.2301,3.233,3.2391,3.2512,3.2568,3.2541,3.2754,3.2691,3.27,3.2706,3.2773,3.2794,3.2812,3.2572,3.2571,3.257,0,0,3.1962,3.2003,3.2096,3.2138,3.22,3.2218,3.2241,3.2299,3.2317,3.2425,3.2407,3.2476,3.2603,3.2647,3.2686,3.2839,3.2822,3.2862,3.2937,3.3005,3.3022,3.3037,3.309,3.311,3.2874,3.2875,3.2875,0,3.2022,3.2138,3.2146,3.2232,3.2275,3.2255,3.2349,3.239,3.2472,3.2502,3.2471,3.2629,3.2669,3.28,3.2837,3.287,3.2894,3.2854,3.3019,3.3034,3.3048,3.3099,3.3119,3.2879,3.2878,3.2878,3.2878,0,3.2207,3.2288,3.2356,3.2435,3.2486,3.2576,3.2597,3.2648,3.2645,3.2666,3.2776,3.2823,3.2902,3.2933,3.2933,3.3064,3.3045,3.3016,3.2959,3.3073,3.3121,3.3141,3.2885,3.2884,3.2882,3.2881,0,0,3.2381,3.2462,3.2487,3.2522,3.2589,3.2652,3.274,3.2817,3.286,3.2917,3.2991,3.3098,3.3072,3.3116,3.3119,3.318,3.3296,3.3143,3.3145,3.3169,3.3443,3.3463,3.3485,3.3286,3.3289,3.3292,3.3437,0,3.2524,3.2679,3.2688,3.2828,3.2902,3.2884,3.296,3.3009,3.3031,3.3097,3.3121,3.3197,3.3157,3.3183,3.3242,3.327,3.3351,3.326,3.3353,3.3356,3.3337,3.3511,3.3533,3.3667,3.3456,3.3459,3.3461,0,3.2711,3.2773,3.2921,3.2976,3.3007,3.3076,3.3146,3.321,3.3265,3.3276,3.3325,3.332,3.341,3.335,3.3473,3.3411,3.345,3.3469,3.3475,3.3483,3.3415,3.3522,3.371,3.373,3.3491,3.3489,3.3487,0,3.2821,3.2942,3.3045,3.3076,3.3144,3.3192,3.3222,3.3274,3.3319,3.338,3.3409,3.3481,3.352,3.3575,3.3589,3.3545,3.3712,3.3654,3.3723,3.3723,3.3759,3.3756,3.3954,3.3786,3.3786,3.3785,3.3785,0,3.2979,3.307,3.3095,3.3159,3.326,3.3269,3.3368,3.3395,3.3441,3.3509,3.3498,3.3562,3.3578,3.3645,3.3657,3.3756,3.3774,3.3786,3.3787,3.3786,3.3784,3.3811,3.3801,3.3791,3.379,3.3789,3.3788,0,3.3119,3.314,3.3251,3.3305,3.3321,3.3393,3.3439,3.35,3.352,3.3606,3.3627,3.3659,3.3737,3.3757,3.385,3.3858,3.3975,3.3969,3.3956,3.3956,3.4024,3.4016,3.4245,3.4274,3.4088,3.409,3.4091,0,3.3218,3.3287,3.3348,3.3392,3.3425,3.3497,3.3542,3.3554,3.3602,3.3669,3.3722,3.3798,3.386,3.3986,3.4017,3.4089,3.4083,3.4158,3.4094,3.409,3.4083,3.4078,3.4084,3.417,3.4172,3.4174,3.4175,0,3.339,3.3397,3.3463,3.3533,3.3587,3.3642,3.3695,3.3733,3.3751,3.3806,3.3885,3.3933,3.4028,3.4104,3.4176,3.4206,3.4194,3.4195,3.4215,3.4213,3.4202,3.4208,3.3988,3.419,3.4188,3.4187,3.4186,3.4186,3.3512,3.3572,3.3624,3.3697,3.3738,3.3787,3.3846,3.3874,3.394,3.4018,3.4021,3.4107,3.4159,3.4254,3.4289,3.4356,3.4333,3.4362,3.4369,3.4376,3.4381,3.4193,3.4369,3.4369,3.4368,3.4368,3.4368,0,3.3683,3.3715,3.3782,3.3856,3.3914,3.3896,3.3954,3.4003,3.4079,3.4128,3.4189,3.428,3.4353,3.439,3.4463,3.4509,3.4505,3.4528,3.4524,3.4531,3.4398,3.4373,3.453,3.453,3.453,3.453,3.453,3.453,3.3778,3.3878,3.389,3.401,3.4042,3.4125,3.4159,3.4205,3.4244,3.4345,3.4406,3.4429,3.4474,3.4549,3.4616,3.4625,3.4651,3.4677,3.4683,3.4557,3.4541,3.4525,3.4501,3.4683,3.4683,3.481,3.4811,3.4812]},{"header":{"parameterUnit":"m.s-1","parameterCategory":1,"la1":30.2991,"la2":30.254,"lo1":-89.0895,"lo2":-89.0444,"dy":0.0017,"dx":0.0017,"nx":28,"ny":28,"refTime":"2025-07-11T03:00:00:Z","depth":0,"parameterNumber":3,"parameterNumberName":"V-component_of_WINDS"},"data":[0,0,0,0,0,0,0,0,0,0,0,0,0,0,0,0,0,0,0,0,0,0,0,0,0,0,0,0,0,0,0,0,0,0,0,0,0,0,0,0,0,0,0,0,0,0,0,0,0,0,0,0,0,0,0,0,0,0,-0.1136,-0.1136,0,-0.1189,-0.119,-0.1191,-0.1244,-0.1245,-0.1245,-0.1246,-0.1301,-0.1302,-0.1302,0,0,0,0,0,0,0,0,0,0,0,0,0,-0.108,-0.1081,-0.1136,-0.1136,-0.1137,-0.1189,-0.119,-0.1191,-0.1244,-0.1245,-0.1246,-0.1246,-0.13,-0.1301,-0.1302,0,0,0,0,0,0,0,0,0,0,0,0,0,-0.1116,-0.1081,-0.1136,-0.117,-0.1173,-0.1189,-0.119,-0.1191,-0.1244,-0.1245,-0.1246,-0.1247,-0.13,-0.1301,-0.1303,-0.1289,0,0,-0.1306,-0.1307,0,0,0,0,0,0,0,0,-0.1114,-0.1118,-0.1164,-0.1167,-0.1171,-0.1211,-0.1191,-0.1224,-0.1243,-0.1217,-0.1246,-0.1247,-0.127,-0.1274,-0.1282,-0.1291,-0.1294,-0.1306,-0.1307,-0.1308,-0.1308,0,0,0,0,0,0,0,-0.1111,-0.1116,-0.1157,-0.1165,-0.1169,-0.1183,-0.1189,-0.1197,-0.1237,-0.1219,-0.1223,-0.1229,-0.1272,-0.128,-0.1283,-0.1294,-0.1306,-0.1307,-0.1308,-0.1309,-0.1297,-0.1296,0,0,0,0,0,0,-0.1104,-0.1113,-0.1155,-0.1159,-0.1145,-0.1183,-0.119,-0.1197,-0.1237,-0.1244,-0.1228,-0.1231,-0.1278,-0.1282,-0.1285,-0.1272,-0.1308,-0.1309,-0.1309,-0.1298,-0.1297,-0.1296,0,0,0,0,0,0,-0.1102,-0.1107,-0.1153,-0.1137,-0.1144,-0.1183,-0.1191,-0.1198,-0.1206,-0.1244,-0.1251,-0.1229,-0.1279,-0.1284,-0.1288,-0.1275,-0.1309,-0.131,-0.1299,-0.1298,-0.1296,-0.1245,0,0,0,0,0,0,-0.11,-0.1106,-0.1101,-0.1137,-0.1145,-0.1154,-0.119,-0.1198,-0.1208,-0.1212,-0.1246,-0.1253,-0.128,-0.1286,-0.1289,-0.1277,-0.1311,-0.1301,-0.1299,-0.1297,-0.1248,-0.1242,-0.1237,0,0,0,0,0,-0.1098,-0.1084,-0.11,-0.1105,-0.1139,-0.1153,-0.1158,-0.1189,-0.1206,-0.1202,-0.1226,-0.1252,-0.1276,-0.1286,-0.129,-0.1278,-0.1302,-0.1299,-0.1297,-0.1251,-0.1244,-0.1237,0,0,0,0,0,0,-0.1045,-0.1089,-0.1108,-0.1104,-0.1125,-0.1162,-0.1157,-0.118,-0.1196,-0.12,-0.1238,-0.1246,-0.1245,-0.1263,-0.1272,-0.1268,-0.1293,-0.1291,-0.1256,-0.1249,-0.1244,-0.1239,-0.1312,0,0,0,0,0,-0.1033,-0.104,-0.1079,-0.1072,-0.1082,-0.1117,-0.1125,-0.1148,-0.117,-0.1179,-0.1204,-0.1225,-0.1237,-0.1245,-0.1258,-0.1252,-0.126,-0.1246,-0.124,-0.1236,-0.1233,-0.1232,-0.1226,-0.1288,-0.1288,-0.1288,0,0,-0.1007,-0.1033,-0.1035,-0.1062,-0.1081,-0.1088,-0.1124,-0.113,-0.1136,-0.118,-0.1185,-0.1204,-0.1231,-0.1229,-0.123,-0.1244,-0.1219,-0.1233,-0.1229,-0.1229,-0.1229,-0.1223,-0.1218,-0.1287,-0.1287,-0.1287,0,0,-0.0965,-0.0985,-0.0982,-0.1,-0.1028,-0.1052,-0.1052,-0.1086,-0.11,-0.1107,-0.114,-0.1148,-0.1169,-0.1186,-0.1198,-0.1164,-0.1188,-0.1168,-0.1138,-0.1136,-0.1131,-0.1127,-0.1115,-0.111,-0.1166,-0.1166,-0.1166,0,-0.093,-0.0942,-0.0978,-0.0982,-0.0993,-0.1034,-0.1032,-0.1048,-0.1078,-0.1085,-0.11,-0.1128,-0.1148,-0.1152,-0.1144,-0.1152,-0.1153,-0.1163,-0.1129,-0.1125,-0.1122,-0.1111,-0.1106,-0.1163,-0.1163,-0.1164,-0.1164,0,-0.0898,-0.0907,-0.0901,-0.093,-0.0941,-0.0942,-0.0978,-0.0985,-0.1007,-0.103,-0.1037,-0.1063,-0.1083,-0.1086,-0.1108,-0.1093,-0.1101,-0.1122,-0.1147,-0.1113,-0.1103,-0.1099,-0.1159,-0.116,-0.1161,-0.1162,0,0,-0.0822,-0.0872,-0.0869,-0.0883,-0.0918,-0.0925,-0.0928,-0.0948,-0.0953,-0.0974,-0.0978,-0.0996,-0.1016,-0.1029,-0.1053,-0.1052,-0.1024,-0.1074,-0.1075,-0.1063,-0.101,-0.0994,-0.0988,-0.1041,-0.1041,-0.104,-0.1008,0,-0.0785,-0.0793,-0.0826,-0.0824,-0.0833,-0.0873,-0.0876,-0.0898,-0.092,-0.0931,-0.0955,-0.0967,-0.0993,-0.1001,-0.1002,-0.1027,-0.1014,-0.103,-0.1045,-0.1045,-0.1036,-0.0983,-0.0965,-0.0933,-0.1005,-0.1004,-0.1004,0,-0.0742,-0.076,-0.076,-0.0795,-0.08,-0.0802,-0.0824,-0.0834,-0.086,-0.0876,-0.0892,-0.092,-0.0926,-0.0951,-0.0961,-0.0971,-0.098,-0.0994,-0.0993,-0.0995,-0.1021,-0.0982,-0.0924,-0.0919,-0.0998,-0.0998,-0.0999,0,-0.0686,-0.0711,-0.0714,-0.0725,-0.0766,-0.0767,-0.0784,-0.0812,-0.0822,-0.0841,-0.0848,-0.0868,-0.0879,-0.0894,-0.0926,-0.0942,-0.0933,-0.096,-0.0946,-0.0945,-0.0941,-0.0941,-0.0883,-0.0948,-0.0948,-0.0948,-0.0948,0,-0.0641,-0.0638,-0.0689,-0.069,-0.069,-0.0728,-0.0727,-0.0748,-0.0773,-0.0779,-0.0816,-0.0822,-0.0865,-0.0876,-0.0902,-0.0906,-0.0911,-0.0925,-0.0931,-0.0921,-0.0919,-0.0926,-0.0928,-0.0947,-0.0947,-0.0948,-0.0948,0,-0.0577,-0.061,-0.0616,-0.0656,-0.0666,-0.0664,-0.0698,-0.0701,-0.0727,-0.0735,-0.0739,-0.0779,-0.0794,-0.0828,-0.0853,-0.087,-0.0868,-0.0881,-0.0859,-0.0863,-0.0847,-0.0847,-0.079,-0.0785,-0.0854,-0.0853,-0.0853,0,-0.0545,-0.0544,-0.0584,-0.0592,-0.0608,-0.0619,-0.063,-0.0669,-0.0679,-0.071,-0.071,-0.0728,-0.0744,-0.0767,-0.0798,-0.0817,-0.083,-0.0809,-0.0833,-0.0823,-0.0829,-0.0828,-0.0828,-0.0803,-0.0802,-0.0801,-0.08,0,-0.0485,-0.0502,-0.0516,-0.0537,-0.055,-0.0568,-0.0588,-0.0592,-0.0636,-0.0646,-0.0662,-0.0674,-0.07,-0.0718,-0.0742,-0.076,-0.0787,-0.0793,-0.079,-0.0779,-0.0766,-0.0772,-0.0843,-0.0793,-0.0794,-0.0795,-0.0795,-0.0795,-0.0436,-0.0437,-0.0466,-0.0481,-0.0501,-0.0519,-0.0525,-0.0551,-0.0566,-0.0589,-0.0612,-0.0626,-0.0654,-0.0689,-0.0706,-0.0718,-0.0731,-0.0728,-0.0727,-0.0726,-0.0721,-0.0765,-0.0723,-0.0723,-0.0723,-0.0723,-0.0723,0,-0.0377,-0.0398,-0.0412,-0.0439,-0.0452,-0.0477,-0.0502,-0.051,-0.0522,-0.0546,-0.0562,-0.0581,-0.0599,-0.0632,-0.0653,-0.0656,-0.0669,-0.066,-0.0659,-0.0663,-0.0708,-0.0707,-0.0649,-0.0649,-0.0649,-0.0649,-0.0649,-0.0649,-0.0348,-0.0352,-0.0373,-0.0388,-0.041,-0.0423,-0.0435,-0.0453,-0.0472,-0.0492,-0.0507,-0.0529,-0.0556,-0.058,-0.0598,-0.0607,-0.0613,-0.06,-0.0613,-0.0653,-0.066,-0.0667,-0.0667,-0.0601,-0.0601,-0.0568,-0.0567,-0.0567]}]]